This is the latest recevied weather packets stored in our database for station/object CT2HRB-13. If no packets are shown the sender has not sent any weather packets the latest 10 day(s).
| Time | Temp. | Humidity | Pressure | Rain* | Wind** | Luminosity | Snow |
|---|---|---|---|---|---|---|---|
| 1778087101 | 17.78° C | 58% | 1011.2 hPa | - | - | - | - |
| 1778086802 | 17.78° C | 58% | 1011.2 hPa | - | - | - | - |
| 1778086502 | 17.78° C | 57% | 1011.3 hPa | - | - | - | - |
| 1778086202 | 17.78° C | 57% | 1011.3 hPa | - | - | - | - |
| 1778085901 | 17.78° C | 56% | 1011.4 hPa | - | - | - | - |
| 1778085601 | 18.33° C | 54% | 1011.4 hPa | - | - | - | - |
| 1778085302 | 18.33° C | 54% | 1011.4 hPa | - | - | - | - |
| 1778085001 | 18.33° C | 55% | 1011.4 hPa | - | - | - | - |
| 1778084701 | 18.33° C | 56% | 1011.3 hPa | - | - | - | - |
| 1778084402 | 18.33° C | 54% | 1011.3 hPa | - | - | - | - |
| 1778084102 | 18.33° C | 55% | 1011.3 hPa | - | - | - | - |
| 1778083801 | 18.33° C | 54% | 1011.3 hPa | - | - | - | - |
| 1778083502 | 18.89° C | 54% | 1011.2 hPa | - | - | - | - |
| 1778083201 | 18.89° C | 54% | 1011.4 hPa | - | - | - | - |
| 1778082901 | 18.89° C | 53% | 1011.3 hPa | - | - | - | - |
| 1778082602 | 18.89° C | 54% | 1011.3 hPa | - | - | - | - |
| 1778082302 | 18.89° C | 55% | 1011.5 hPa | - | - | - | - |
| 1778082002 | 18.89° C | 55% | 1011.4 hPa | - | - | - | - |
| 1778081702 | 18.89° C | 54% | 1011.5 hPa | - | - | - | - |
| 1778081402 | 18.89° C | 53% | 1011.5 hPa | - | - | - | - |
| 1778081101 | 19.44° C | 53% | 1011.8 hPa | - | - | - | - |
| 1778080801 | 20° C | 52% | 1011.5 hPa | - | - | - | - |
| 1778080501 | 20.56° C | 51% | 1011.8 hPa | - | - | - | - |
| 1778080201 | 20.56° C | 52% | 1012 hPa | - | - | - | - |
| 1778079901 | 20° C | 53% | 1012 hPa | - | - | - | - |
* Rain since midnight (hover to see other rain measurements)
** Current wind speed in m/s (hover to see current wind gust speed)